TimeCST,TemperatureF,Dew PointF,Humidity,Sea Level PressureIn,VisibilityMPH,Wind Direction,Wind SpeedMPH,Gust SpeedMPH,PrecipitationIn,Events,Conditions,WindDirDegrees,DateUTC
12:53 AM,53.1,33.1,47,30.37,10.0,NE,8.1,-,N/A,,Mostly Cloudy,40,2012-11-14 06:53:00
1:53 AM,53.1,33.1,47,30.37,10.0,NE,11.5,-,N/A,,Overcast,40,2012-11-14 07:53:00
2:53 AM,53.1,32.0,45,30.36,10.0,NE,10.4,-,N/A,,Overcast,50,2012-11-14 08:53:00
3:53 AM,52.0,34.0,50,30.36,10.0,NNE,5.8,-,N/A,,Overcast,30,2012-11-14 09:53:00
4:53 AM,52.0,34.0,50,30.36,10.0,NE,9.2,-,N/A,,Overcast,40,2012-11-14 10:53:00
5:53 AM,51.1,33.1,50,30.37,10.0,ENE,8.1,-,N/A,,Overcast,60,2012-11-14 11:53:00
6:53 AM,51.1,34.0,52,30.38,10.0,ENE,6.9,-,N/A,,Mostly Cloudy,60,2012-11-14 12:53:00
7:53 AM,52.0,33.1,49,30.40,10.0,NE,9.2,-,N/A,,Overcast,40,2012-11-14 13:53:00
8:53 AM,53.1,32.0,45,30.41,10.0,NNE,11.5,-,N/A,,Overcast,30,2012-11-14 14:53:00
9:53 AM,55.0,32.0,42,30.43,10.0,NE,8.1,-,N/A,,Overcast,50,2012-11-14 15:53:00
10:53 AM,55.9,32.0,40,30.41,10.0,NNE,6.9,-,N/A,,Overcast,30,2012-11-14 16:53:00
11:53 AM,57.9,30.0,35,30.39,10.0,North,5.8,-,N/A,,Overcast,10,2012-11-14 17:53:00
12:53 PM,60.1,30.0,32,30.36,10.0,NNW,6.9,-,N/A,,Overcast,330,2012-11-14 18:53:00
1:53 PM,62.1,28.9,29,30.33,10.0,NNE,6.9,-,N/A,,Mostly Cloudy,20,2012-11-14 19:53:00
2:53 PM,63.0,28.9,28,30.31,10.0,North,4.6,-,N/A,,Scattered Clouds,360,2012-11-14 20:53:00
3:53 PM,64.9,30.0,27,30.30,10.0,NW,5.8,-,N/A,,Partly Cloudy,320,2012-11-14 21:53:00
4:53 PM,63.0,30.9,30,30.29,10.0,North,6.9,-,N/A,,Partly Cloudy,350,2012-11-14 22:53:00
5:53 PM,57.0,34.0,42,30.29,10.0,Calm,Calm,-,N/A,,Partly Cloudy,0,2012-11-14 23:53:00
6:53 PM,57.0,30.0,36,30.30,10.0,NNE,5.8,-,N/A,,Clear,30,2012-11-15 00:53:00
7:53 PM,52.0,34.0,50,30.32,10.0,Calm,Calm,-,N/A,,Clear,0,2012-11-15 01:53:00
8:53 PM,50.0,36.0,59,30.33,10.0,Calm,Calm,-,N/A,,Clear,0,2012-11-15 02:53:00
9:53 PM,50.0,35.1,57,30.33,10.0,ENE,3.5,-,N/A,,Clear,60,2012-11-15 03:53:00
10:53 PM,48.9,35.1,59,30.33,10.0,Calm,Calm,-,N/A,,Clear,0,2012-11-15 04:53:00
11:53 PM,48.0,36.0,63,30.31,10.0,Calm,Calm,-,N/A,,Clear,0,2012-11-15 05:53:00